Home   Weather   Biarritz   Past weeks

Flag for France Past Weather in Biarritz, Aquitaine, France — Yesterday and Last 2 Weeks

Now
45 °F

Clear.


Feels Like: 42 °F
Forecast: 43 / 56 °F
Wind: 5 mph from Southeast

Location: Biarritz Airport

Current Time: Dec 10, 2016 at 4:12:47 am

Latest Report: Dec 10, 2016 at 3:30 am


Visibility: 10 mi

Pressure: 30.33 "Hg

Humidity: 76%

Dew Point: 37 °F

Location of BiarritzLocation

Past Weather in Biarritz — Graph

°F

Biarritz Temperature Yesterday

Maximum temperature yesterday: 66 °F (at 2:00 pm)
Minimum temperature yesterday: 41 °F (at 7:30 am)
Average temperature yesterday: 54 °F

High & Low Weather Summary for the Past Weeks

 TemperatureHumidityPressure
High68 °F (Dec 5, 1:30 pm)100% (Nov 27, 8:30 pm)30.45 "Hg (Nov 27, 8:30 pm)
Low34 °F (Nov 26, 7:30 am)37% (Dec 8, 2:30 pm)29.83 "Hg (Nov 25, 3:00 am)
Average50 °F76%30.12 "Hg
* Reported Nov 25 3:00 am — Dec 10 3:00 am, Biarritz, Weather by CustomWeather, © 2016

Note: Actual official high and low records may vary slightly from our data, if they occured in-between our weather recording intervals... More about our weather records

Advertising

Biarritz Weather History for the Previous 24 Hours

Scroll right to see more
 ConditionsComfort  
Time TempWeatherWind HumidityBarometerVisibility
3:00 am
Sat, Dec 10
45 °FPassing clouds.3 mph81%30.36 "HgN/A
2:30 am48 °FClear.5 mph76%30.36 "Hg10 mi
2:00 am46 °FClear.5 mph76%30.36 "Hg10 mi
1:30 am46 °FClear.5 mph76%30.36 "Hg10 mi
1:00 am48 °FPassing clouds.5 mph66%30.36 "HgN/A
12:30 am50 °FClear.3 mph71%30.36 "Hg10 mi
12:00 am46 °FClear.5 mph71%30.36 "Hg10 mi
11:30 pm
Fri, Dec 9
50 °FClear.3 mph67%30.36 "Hg10 mi
11:00 pm50 °FClear.3 mph67%30.39 "Hg10 mi
10:30 pm50 °FClear.5 mph67%30.39 "Hg10 mi
10:00 pm50 °FClear.5 mph67%30.39 "Hg10 mi
9:30 pm52 °FClear.5 mph62%30.39 "Hg10 mi
9:00 pm50 °FClear.5 mph67%30.39 "Hg10 mi
8:30 pm52 °FPassing clouds.6 mph62%30.39 "HgN/A
8:00 pm54 °FClear.5 mph58%30.39 "Hg10 mi
7:30 pm54 °FClear.6 mph58%30.39 "Hg10 mi
7:00 pm54 °FClear.5 mph63%30.39 "Hg10 mi
6:30 pm55 °FClear.5 mph59%30.39 "Hg10 mi
6:00 pm55 °FPassing clouds.5 mph63%30.39 "HgN/A
5:30 pm59 °FClear.3 mph51%30.39 "Hg10 mi
5:00 pm61 °FSunny.3 mph48%30.39 "Hg10 mi
4:30 pm63 °FSunny.6 mph45%30.39 "Hg10 mi
4:00 pm64 °FSunny.6 mph46%30.39 "Hg10 mi
3:30 pm63 °FSunny.8 mph45%30.39 "Hg10 mi
3:00 pm64 °FSunny.7 mph46%30.39 "Hg10 mi
2:30 pm64 °FSunny.7 mph43%30.39 "Hg10 mi
2:00 pm66 °FPassing clouds.9 mph37%30.39 "HgN/A
1:30 pm64 °FPassing clouds.7 mph40%30.39 "HgN/A
1:00 pm64 °FPassing clouds.12 mph40%30.39 "HgN/A
12:30 pm63 °FPassing clouds.10 mph42%30.42 "HgN/A
12:00 pm63 °FSunny.2 mph42%30.42 "Hg10 mi
11:30 am55 °FSunny.3 mph63%30.42 "Hg10 mi
11:00 am54 °FSunny.2 mph58%30.42 "Hg10 mi
10:30 am50 °FPassing clouds.5 mph67%30.42 "HgN/A
10:00 am48 °FSunny.2 mph71%30.42 "Hg10 mi
9:30 am46 °FSunny.2 mph71%30.42 "Hg10 mi
9:00 am45 °FSunny.1 mph66%30.42 "Hg10 mi
8:30 am43 °FSunny.3 mph71%30.42 "Hg10 mi
8:00 am41 °FClear.5 mph76%30.39 "Hg10 mi
7:30 am41 °FClear.5 mph76%30.39 "Hg10 mi
7:00 am50 °FPassing clouds.5 mph58%30.39 "HgN/A
6:30 am54 °FClear.5 mph58%30.39 "Hg10 mi
5:30 am43 °FPassing clouds.6 mph76%30.39 "HgN/A
5:00 am43 °FClear.5 mph76%30.39 "Hg10 mi
4:30 am43 °FPassing clouds.6 mph76%30.39 "HgN/A
4:00 am45 °FPassing clouds.6 mph71%30.39 "HgN/A
Weather by CustomWeather, © 2016

See weather overviewHow to use our weather pages